QPF
0.00 0.00 0.00 0.00 0.00 0.00 0.00 0.00 0.00 0.00 0.00 0.00 0.00 0.00 0.00 0.00 0.00 0.00 0.00 0.00 0.00 0.00 0.00 0.00 0.00 0.01 0.01 0.01 0.01 0.03 0.05 0.03 0.00 0.01 0.00 0.00 0.00 0.00 0.00 0.00 0.00 0.00 0.00 0.00
0.00 0.00 0.00 0.00 0.00 0.00 0.00 0.00 0.00 0.00 0.00 0.00 0.00 0.00 0.00 0.00 0.00 0.00 0.00 0.00 0.00 0.00 0.00 0.00 0.00 0.01 0.00 0.01 0.02 0.02 0.03 0.02 0.00 0.00 0.00 0.00 0.00 0.00 0.00 0.00 0.00 0.00 0.00 0.00
0.00 0.00 0.00 0.00 0.00 0.00 0.00 0.00 0.00 0.00 0.00 0.00 0.00 0.00 0.00 0.00 0.00 0.00 0.00 0.00 0.00 0.00 0.00 0.00 0.00 0.00 0.00 0.01 0.01 0.00 0.00 0.00 0.00 0.00 0.00 0.00 0.00 0.00 0.00 0.00 0.00 0.00 0.00 0.00
0.00 0.00 0.00 0.00 0.00 0.00 0.00 0.00 0.00 0.00 0.00 0.00 0.00 0.00 0.00 0.00 0.00 0.00 0.00 0.00 0.00 0.00 0.00 0.00 0.00 0.00 0.00 0.00 0.00 0.00 0.00 0.00 0.00 0.00 0.00 0.00 0.00 0.00 0.00 0.00 0.00 0.00 0.00 0.00
0.00 0.00 0.00 0.00 0.00 0.00 0.00 0.00 0.00 0.00 0.00 0.00 0.00 0.00 0.00 0.00 0.00 0.00 0.00 0.00 0.00 0.00 0.00 0.00 0.00 0.00 0.00 0.00 0.00 0.00 0.00 0.00 0.00 0.00 0.00 0.00 0.00 0.00 0.00 0.00 0.00 0.00 0.00 0.00
0.00 0.00 0.00 0.00 0.00 0.00 0.00 0.00 0.00 0.00 0.00 0.00 0.00 0.02 0.01 0.01 0.00 0.00 0.00 0.00 0.00 0.00 0.00 0.00 0.00 0.00 0.00 0.00 0.00 0.00 0.00 0.00 0.00 0.00 0.00 0.00 0.00 0.00 0.00 0.00 0.00 0.00 0.00 0.00
0.00 0.00 0.00 0.00 0.00 0.00 0.00 0.00 0.00 0.00 0.00 0.00 0.02 0.02 0.00 0.00 0.00 0.00 0.00 0.00 0.00 0.00 0.00 0.00 0.00 0.00 0.00 0.00 0.00 0.00 0.00 0.00 0.00 0.00 0.00 0.00 0.00 0.00 0.00 0.00 0.00 0.00 0.00 0.00
0.00 0.00 0.00 0.00 0.00 0.00 0.00 0.00 0.00 0.00 0.00 0.01 0.00 0.00 0.00 0.00 0.00 0.00 0.00 0.00 0.00 0.00 0.00 0.00 0.00 0.00 0.00 0.00 0.00 0.00 0.00 0.00 0.00 0.00 0.00 0.00 0.00 0.00 0.00 0.00 0.00 0.00 0.00 0.00
0.00 0.00 0.00 0.00 0.00 0.00 0.00 0.00 0.00 0.00 0.00 0.00 0.00 0.00 0.00 0.00 0.00 0.00 0.00 0.00 0.00 0.00 0.00 0.00 0.00 0.00 0.00 0.00 0.00 0.00 0.00 0.00 0.00 0.00 0.00 0.00 0.00 0.00 0.00 0.00 0.00 0.00 0.00 0.00
0.00 0.00 0.00 0.00 0.00 0.00 0.00 0.00 0.00 0.00 0.00 0.00 0.00 0.00 0.00 0.00 0.00 0.00 0.00 0.00 0.00 0.00 0.00 0.00 0.00 0.00 0.00 0.00 0.00 0.00 0.00 0.00 0.00 0.00 0.00 0.00 0.00 0.00 0.00 0.00 0.00 0.00 0.00 0.00
0.00 0.00 0.00 0.00 0.00 0.00 0.00 0.00 0.00 0.00 0.00 0.00 0.00 0.00 0.00 0.00 0.00 0.00 0.00 0.00 0.00 0.00 0.00 0.00 0.00 0.00 0.00 0.00 0.00 0.00 0.00 0.00 0.00 0.00 0.00 0.00 0.00 0.00 0.00 0.00 0.00 0.00 0.00 0.00
0.00 0.00 0.00 0.00 0.00 0.00 0.00 0.00 0.00 0.00 0.00 0.00 0.00 0.00 0.00 0.00 0.00 0.00 0.00 0.00 0.00 0.00 0.00 0.00 0.00 0.00 0.00 0.00 0.00 0.00 0.00 0.00 0.00 0.00 0.00 0.00 0.00 0.00 0.00 0.00 0.00 0.00 0.00 0.00
0.00 0.00 0.00 0.00 0.00 0.00 0.00 0.00 0.00 0.00 0.00 0.00 0.00 0.00 0.00 0.00 0.00 0.00 0.00 0.00 0.00 0.00 0.00 0.00 0.00 0.00 0.00 0.00 0.00 0.00 0.00 0.00 0.00 0.00 0.00 0.00 0.00 0.00 0.00 0.00 0.00 0.00 0.00 0.00
0.00 0.00 0.00 0.00 0.00 0.00 0.00 0.00 0.00 0.00 0.00 0.00 0.00 0.00 0.00 0.00 0.00 0.00 0.00 0.00 0.00 0.00 0.00 0.00 0.00 0.00 0.00 0.00 0.00 0.00 0.00 0.00 0.00 0.00 0.00 0.00 0.00 0.00 0.00 0.00 0.00 0.00 0.00 0.00
0.00 0.00 0.00 0.00 0.00 0.00 0.00 0.00 0.00 0.00 0.00 0.00 0.00 0.00 0.00 0.00 0.00 0.00 0.00 0.00 0.00 0.00 0.00 0.00 0.00 0.00 0.00 0.00 0.00 0.00 0.00 0.00 0.00 0.00 0.00 0.00 0.00 0.01 0.02 0.02 0.01 0.00 0.00 0.00
0.00 0.00 0.00 0.00 0.00 0.00 0.00 0.00 0.00 0.00 0.00 0.00 0.00 0.00 0.00 0.00 0.00 0.00 0.00 0.00 0.00 0.00 0.00 0.00 0.00 0.00 0.00 0.00 0.00 0.00 0.00 0.00 0.00 0.00 0.00 0.01 0.01 0.03 0.03 0.02 0.01 0.00 0.00 0.00
0.00 0.00 0.00 0.00 0.00 0.00 0.00 0.00 0.00 0.00 0.00 0.00 0.00 0.00 0.00 0.00 0.00 0.00 0.00 0.00 0.00 0.00 0.00 0.00 0.00 0.00 0.00 0.00 0.00 0.00 0.00 0.00 0.00 0.00 0.00 0.00 0.01 0.02 0.01 0.02 0.01 0.00 0.00 0.00
0.00 0.00 0.00 0.00 0.00 0.00 0.00 0.00 0.00 0.00 0.00 0.00 0.00 0.00 0.00 0.00 0.00 0.00 0.00 0.00 0.00 0.00 0.00 0.00 0.00 0.00 0.00 0.00 0.00 0.00 0.00 0.00 0.00 0.00 0.00 0.00 0.01 0.01 0.04 0.05 0.01 0.00 0.00 0.00
0.00 0.00 0.00 0.00 0.00 0.00 0.00 0.00 0.00 0.00 0.00 0.00 0.00 0.00 0.00 0.00 0.00 0.00 0.00 0.00 0.00 0.00 0.00 0.00 0.00 0.00 0.00 0.00 0.00 0.00 0.00 0.00 0.00 0.00 0.00 0.00 0.01 0.02 0.01 0.02 0.01 0.00 0.00 0.00
0.00 0.00 0.00 0.00 0.00 0.00 0.00 0.00 0.00 0.00 0.00 0.00 0.00 0.00 0.00 0.00 0.00 0.00 0.00 0.00 0.00 0.00 0.00 0.00 0.00 0.00 0.00 0.00 0.00 0.00 0.00 0.00 0.00 0.00 0.00 0.00 0.00 0.01 0.02 0.02 0.00 0.00 0.00 0.00
0.00 0.00 0.00 0.00 0.00 0.00 0.00 0.00 0.00 0.00 0.00 0.00 0.00 0.00 0.00 0.00 0.00 0.00 0.00 0.00 0.00 0.00 0.00 0.00 0.00 0.00 0.00 0.00 0.00 0.00 0.00 0.00 0.00 0.00 0.00 0.00 0.01 0.00 0.00 0.00 0.00 0.00 0.00 0.00
0.00 0.00 0.00 0.00 0.00 0.00 0.00 0.00 0.00 0.00 0.00 0.00 0.00 0.00 0.00 0.00 0.00 0.00 0.00 0.00 0.00 0.00 0.00 0.00 0.00 0.00 0.00 0.00 0.00 0.00 0.00 0.00 0.00 0.00 0.00 0.00 0.00 0.00 0.00 0.00 0.00 0.00 0.00 0.00
0.00 0.00 0.00 0.00 0.00 0.00 0.00 0.00 0.00 0.00 0.00 0.00 0.00 0.00 0.00 0.00 0.00 0.00 0.00 0.00 0.00 0.00 0.00 0.00 0.00 0.00 0.00 0.00 0.00 0.00 0.00 0.00 0.00 0.00 0.00 0.00 0.00 0.00 0.00 0.00 0.00 0.00 0.00 0.00
0.00 0.00 0.00 0.00 0.00 0.00 0.00 0.00 0.00 0.00 0.00 0.00 0.00 0.00 0.00 0.00 0.00 0.00 0.00 0.00 0.00 0.00 0.00 0.00 0.00 0.00 0.00 0.00 0.00 0.00 0.00 0.00 0.00 0.00 0.00 0.00 0.00 0.00 0.00 0.00 0.00 0.00 0.00 0.00
0.00 0.00 0.00 0.00 0.00 0.00 0.00 0.00 0.00 0.00 0.00 0.00 0.00 0.00 0.00 0.00 0.00 0.00 0.00 0.00 0.00 0.00 0.00 0.00 0.00 0.00 0.00 0.00 0.00 0.00 0.00 0.00 0.00 0.00 0.00 0.00 0.00 0.00 0.00 0.00 0.00 0.00 0.00 0.00
0.00 0.00 0.00 0.00 0.00 0.00 0.00 0.00 0.00 0.00 0.00 0.00 0.00 0.00 0.00 0.00 0.00 0.00 0.00 0.00 0.00 0.00 0.00 0.00 0.00 0.00 0.00 0.00 0.00 0.00 0.00 0.00 0.00 0.00 0.00 0.00 0.00 0.00 0.00 0.00 0.00 0.00 0.00 0.00
MSLP
1008.88 1009.91 1010.29 1010.24 1010.11 1010.06 1010.12 1010.44 1010.75 1010.84 1010.66 1010.90 1011.13 1011.97 1012.13 1012.03 1012.24 1012.66 1013.41 1013.67 1014.47 1014.99 1015.65 1015.98 1016.58 1016.80 1016.97 1018.01 1018.92 1019.47 1019.83 1020.11 1020.10 1020.37 1020.20 1020.47 1020.73 1020.87 1021.07 1020.86 1020.79 1020.69 1020.65 1020.58
1009.95 1010.51 1010.40 1010.30 1010.38 1010.42 1010.42 1010.84 1011.66 1011.44 1011.21 1011.40 1011.75 1012.59 1012.51 1012.70 1013.41 1013.75 1014.59 1015.05 1015.42 1015.88 1016.50 1017.12 1017.66 1017.93 1018.77 1019.52 1019.99 1020.55 1020.72 1020.36 1020.47 1020.55 1020.66 1020.67 1020.82 1021.02 1020.74 1020.60 1020.78 1021.19 1021.10 1020.70
1010.44 1010.92 1010.50 1010.42 1010.80 1011.22 1011.52 1011.90 1012.10 1012.25 1012.00 1011.81 1012.31 1013.58 1013.36 1013.65 1013.97 1014.43 1015.23 1015.91 1016.31 1016.79 1017.50 1018.20 1018.83 1019.46 1019.80 1020.24 1020.45 1020.40 1020.56 1020.65 1020.75 1020.76 1020.68 1020.84 1021.05 1021.29 1021.44 1021.45 1021.34 1021.31 1021.19 1020.88
1011.02 1011.02 1010.87 1010.93 1011.45 1011.87 1012.18 1012.50 1012.67 1012.94 1013.28 1013.23 1012.96 1014.70 1014.47 1014.46 1015.08 1015.52 1016.26 1016.97 1017.60 1018.11 1018.62 1019.01 1019.60 1020.18 1020.51 1020.76 1020.60 1020.67 1020.79 1020.92 1021.12 1021.23 1021.29 1021.77 1022.28 1022.44 1022.28 1022.00 1021.86 1022.01 1021.69 1021.43
1011.74 1011.72 1011.62 1011.65 1012.17 1012.31 1012.86 1012.85 1013.19 1013.59 1014.09 1014.32 1013.87 1014.68 1015.42 1015.36 1016.23 1016.65 1017.17 1017.77 1018.39 1018.90 1019.46 1020.03 1020.25 1020.67 1020.85 1020.98 1021.08 1021.02 1021.05 1021.05 1021.09 1021.25 1021.51 1021.97 1022.31 1022.11 1021.95 1022.22 1022.47 1022.48 1022.21 1021.93
1011.97 1012.05 1012.35 1012.45 1012.34 1012.39 1012.71 1013.25 1013.73 1014.41 1015.14 1015.77 1015.25 1015.22 1016.23 1016.14 1016.51 1017.23 1017.73 1018.29 1018.93 1019.23 1019.76 1020.09 1020.43 1020.74 1021.03 1021.00 1020.95 1020.84 1021.05 1021.21 1021.21 1021.27 1021.55 1021.80 1022.11 1022.32 1022.60 1022.65 1022.66 1022.59 1022.51 1022.33
1012.73 1012.90 1012.82 1012.70 1012.63 1012.88 1013.24 1013.90 1015.12 1016.45 1017.14 1017.28 1015.98 1016.37 1017.40 1016.93 1016.92 1017.34 1018.20 1018.87 1019.39 1019.75 1020.16 1020.54 1020.68 1021.01 1021.23 1021.25 1021.27 1021.32 1021.25 1021.25 1021.29 1021.37 1021.82 1022.27 1022.54 1022.64 1022.88 1023.00 1022.99 1022.71 1022.62 1022.79
1013.30 1013.87 1013.52 1013.57 1013.51 1013.80 1014.01 1014.80 1016.50 1018.11 1019.31 1018.79 1017.10 1017.80 1018.48 1017.62 1017.75 1018.09 1018.45 1018.83 1019.38 1019.77 1020.22 1020.51 1020.56 1020.86 1021.16 1021.13 1021.38 1021.47 1021.50 1021.61 1021.76 1022.19 1022.47 1022.66 1022.80 1022.71 1022.90 1022.49 1022.94 1023.09 1023.24 1023.34
1013.98 1014.55 1014.39 1014.10 1013.87 1014.07 1014.56 1015.66 1016.59 1018.51 1019.92 1020.41 1019.43 1019.37 1018.49 1017.97 1018.13 1018.29 1018.64 1019.06 1019.63 1019.87 1020.15 1020.44 1020.85 1021.40 1021.93 1022.25 1022.19 1022.16 1022.16 1022.43 1022.48 1022.62 1022.78 1022.70 1022.57 1022.40 1022.89 1023.05 1023.22 1023.31 1023.40 1023.17
1014.62 1015.05 1014.90 1014.57 1014.45 1014.45 1014.92 1015.86 1017.23 1019.05 1021.14 1021.61 1020.64 1019.87 1019.17 1018.81 1018.76 1018.84 1019.28 1019.65 1019.89 1020.25 1020.80 1021.31 1021.66 1022.14 1022.35 1022.47 1022.69 1022.77 1022.77 1022.89 1023.07 1023.00 1022.88 1022.77 1022.67 1022.50 1022.74 1023.12 1023.12 1023.17 1023.34 1023.25
1015.35 1015.51 1015.84 1015.29 1015.54 1015.54 1015.70 1016.44 1017.88 1019.52 1021.48 1022.57 1022.25 1021.17 1019.24 1019.67 1019.53 1019.70 1019.82 1020.55 1021.00 1021.45 1021.83 1022.27 1022.48 1022.58 1022.77 1022.89 1023.03 1023.17 1023.14 1022.96 1022.95 1022.75 1022.62 1022.53 1022.51 1022.53 1022.54 1022.50 1022.40 1022.45 1022.63 1022.64
1016.31 1016.64 1016.88 1016.74 1016.27 1015.94 1016.15 1017.11 1018.52 1020.89 1022.73 1023.16 1022.83 1021.76 1020.15 1019.78 1019.77 1020.14 1020.78 1021.08 1021.33 1021.77 1022.30 1022.60 1022.80 1023.00 1023.05 1023.26 1022.90 1023.23 1023.05 1022.89 1022.62 1022.35 1022.34 1022.33 1022.27 1022.15 1021.89 1021.96 1021.98 1021.85 1022.08 1022.32
1017.19 1017.48 1017.99 1017.93 1017.52 1016.82 1016.82 1017.58 1018.87 1020.62 1022.17 1023.21 1023.35 1021.76 1020.00 1019.56 1019.63 1020.26 1021.18 1021.52 1021.90 1022.27 1022.80 1023.22 1023.43 1023.28 1023.30 1023.07 1023.10 1023.11 1022.94 1022.70 1022.37 1022.20 1022.19 1022.19 1022.25 1021.97 1022.00 1021.94 1022.05 1021.97 1021.89 1022.18
1017.66 1018.07 1018.77 1018.90 1018.45 1017.99 1017.92 1018.17 1018.84 1020.10 1021.81 1022.23 1022.02 1021.13 1020.11 1020.36 1020.93 1021.47 1021.86 1022.19 1022.59 1023.01 1023.58 1023.80 1023.81 1023.81 1023.55 1023.31 1023.20 1023.14 1023.01 1022.65 1022.35 1022.11 1021.94 1021.77 1021.61 1021.56 1021.61 1021.70 1022.24 1022.45 1022.03 1021.97
1018.45 1019.58 1019.87 1019.78 1019.41 1018.99 1018.79 1018.81 1019.07 1019.53 1020.08 1020.94 1020.71 1020.67 1021.02 1021.17 1021.59 1022.16 1022.50 1022.83 1023.25 1023.65 1023.88 1024.03 1024.08 1023.63 1023.45 1023.43 1023.34 1023.19 1023.02 1022.77 1022.39 1022.24 1022.05 1021.48 1021.15 1021.59 1022.17 1022.43 1022.15 1022.30 1021.54 1021.40
1019.32 1020.81 1021.34 1021.48 1020.89 1020.44 1019.95 1019.42 1019.13 1019.14 1019.29 1019.55 1019.87 1020.31 1020.60 1021.19 1021.60 1022.34 1022.92 1023.40 1023.77 1024.08 1023.95 1023.87 1023.72 1023.54 1023.47 1023.43 1023.18 1023.02 1023.12 1023.03 1022.62 1022.43 1021.95 1021.46 1021.74 1021.81 1021.80 1022.06 1021.93 1021.41 1021.25 1021.01
1020.67 1022.16 1023.25 1023.44 1022.67 1021.83 1020.98 1019.48 1018.88 1018.72 1018.83 1019.26 1020.02 1020.41 1021.22 1021.78 1022.34 1023.05 1023.51 1023.71 1023.91 1023.97 1023.82 1023.89 1023.66 1023.47 1023.41 1023.24 1023.25 1023.31 1023.18 1022.79 1022.53 1022.28 1022.24 1022.29 1022.17 1021.87 1021.84 1021.50 1021.81 1021.43 1021.12 1020.89
1021.61 1023.10 1024.44 1025.19 1024.20 1023.25 1020.41 1019.17 1018.59 1018.87 1019.30 1019.68 1020.43 1021.28 1021.61 1022.13 1022.89 1023.24 1023.52 1023.71 1023.69 1023.65 1023.66 1023.53 1023.52 1023.51 1023.33 1023.36 1023.33 1023.23 1022.85 1022.59 1022.28 1022.49 1022.43 1022.22 1022.02 1021.89 1021.75 1021.73 1021.66 1021.28 1020.84 1020.82
1021.85 1023.76 1025.95 1026.42 1025.73 1023.42 1020.59 1019.40 1019.17 1019.41 1020.20 1020.35 1021.01 1021.57 1022.01 1022.41 1022.98 1023.62 1023.53 1023.36 1023.37 1023.43 1023.36 1023.35 1023.32 1023.27 1023.33 1023.28 1023.18 1022.97 1022.69 1022.41 1022.37 1022.34 1022.22 1022.16 1022.07 1021.83 1021.73 1021.92 1021.39 1020.88 1020.87 1021.15
1023.17 1024.15 1025.64 1026.74 1026.42 1024.28 1021.11 1019.78 1019.39 1019.74 1020.80 1021.03 1021.35 1021.96 1022.44 1022.70 1023.35 1023.61 1023.28 1023.19 1023.12 1023.04 1023.07 1023.16 1023.14 1023.13 1023.19 1023.17 1022.89 1022.68 1022.48 1022.33 1022.45 1022.41 1022.28 1022.11 1021.94 1021.73 1021.60 1021.33 1020.92 1020.97 1020.97 1021.47
1024.42 1025.32 1026.13 1026.51 1025.79 1023.36 1020.53 1019.68 1019.50 1020.59 1021.19 1021.13 1021.52 1022.04 1022.52 1023.13 1023.49 1023.45 1023.24 1023.10 1022.90 1022.85 1022.92 1022.90 1022.99 1023.26 1023.17 1022.83 1022.50 1022.22 1022.09 1022.21 1022.18 1022.14 1021.99 1021.85 1021.59 1021.40 1021.13 1021.11 1021.02 1021.00 1021.45 1021.71
1023.69 1024.78 1025.38 1025.41 1024.71 1022.15 1019.54 1019.55 1019.89 1020.25 1020.45 1020.99 1021.51 1021.97 1022.40 1022.88 1023.17 1023.25 1023.12 1022.88 1022.86 1022.91 1023.00 1022.95 1023.14 1023.16 1022.79 1022.38 1022.33 1022.37 1022.39 1022.22 1022.10 1021.98 1021.83 1021.78 1021.59 1021.32 1021.09 1021.07 1021.04 1021.44 1021.70 1022.01
1022.16 1021.63 1022.17 1022.65 1021.44 1019.58 1018.74 1018.68 1018.89 1019.44 1020.23 1020.98 1021.28 1021.68 1022.13 1022.60 1022.80 1022.96 1022.96 1022.90 1023.04 1023.13 1023.17 1023.12 1023.14 1022.90 1022.64 1022.45 1022.42 1022.45 1022.44 1022.23 1022.11 1021.99 1022.00 1021.84 1021.59 1021.40 1021.23 1021.34 1021.56 1021.73 1021.90 1022.13
1019.73 1019.57 1020.18 1020.33 1019.31 1018.69 1018.58 1018.59 1018.83 1019.42 1020.12 1020.66 1021.10 1021.52 1021.87 1022.29 1022.53 1022.71 1023.00 1023.13 1023.25 1023.33 1023.38 1023.19 1023.07 1023.00 1022.80 1022.52 1022.41 1022.37 1022.16 1021.94 1021.79 1021.97 1022.12 1022.01 1021.98 1021.77 1021.54 1021.53 1021.66 1021.96 1022.08 1022.30
1019.18 1018.65 1018.80 1019.06 1018.56 1018.48 1018.89 1018.91 1019.34 1019.77 1020.16 1020.55 1020.76 1021.08 1021.61 1022.13 1022.55 1022.93 1023.31 1023.40 1023.57 1023.65 1023.50 1023.37 1023.27 1023.09 1022.83 1022.62 1022.50 1022.25 1021.91 1021.66 1021.82 1022.04 1022.23 1022.28 1022.23 1022.05 1021.83 1021.75 1021.98 1022.11 1022.15 1022.27
1018.31 1017.97 1018.36 1018.03 1018.04 1018.33 1019.05 1019.26 1019.49 1019.86 1020.23 1020.57 1020.87 1021.42 1021.73 1022.23 1022.86 1023.16 1023.52 1023.70 1023.76 1023.70 1023.62 1023.46 1023.36 1023.19 1022.92 1022.69 1022.50 1022.21 1021.80 1021.58 1021.78 1022.04 1022.28 1022.38 1022.34 1022.27 1022.11 1022.14 1022.26 1022.20 1022.04 1022.00
Thickness
5698 5673 5662 5683 5695 5699 5698 5693 5681 5691 5708 5703 5700 5686 5689 5697 5694 5694 5690 5691 5684 5681 5680 5677 5671 5668 5666 5655 5647 5638 5633 5627 5617 5612 5612 5606 5597 5590 5585 5581 5577 5574 5569 5566
5679 5663 5688 5697 5698 5695 5698 5686 5672 5689 5705 5698 5693 5684 5688 5691 5687 5686 5678 5678 5676 5674 5670 5665 5661 5656 5647 5639 5633 5625 5619 5617 5612 5606 5600 5597 5591 5585 5581 5576 5569 5561 5556 5554
5667 5679 5697 5695 5684 5679 5677 5673 5674 5677 5690 5696 5690 5666 5673 5682 5682 5682 5676 5672 5671 5667 5661 5656 5651 5642 5636 5628 5625 5621 5615 5610 5604 5599 5595 5588 5583 5575 5568 5562 5556 5550 5545 5540
5675 5690 5688 5684 5678 5677 5667 5682 5681 5677 5668 5650 5682 5630 5657 5665 5663 5663 5660 5656 5654 5652 5650 5647 5639 5629 5624 5619 5617 5612 5606 5599 5593 5586 5581 5573 5563 5555 5553 5548 5543 5534 5528 5523
5668 5670 5671 5672 5672 5679 5668 5683 5677 5675 5663 5662 5667 5641 5647 5653 5635 5645 5649 5645 5639 5635 5632 5629 5627 5621 5616 5611 5606 5599 5595 5592 5586 5578 5572 5563 5556 5551 5545 5535 5525 5517 5510 5503
5673 5682 5674 5670 5680 5682 5682 5673 5670 5668 5656 5620 5654 5645 5626 5633 5639 5634 5637 5638 5632 5627 5620 5613 5611 5609 5604 5601 5596 5592 5585 5578 5575 5571 5565 5557 5549 5538 5528 5519 5511 5503 5494 5485
5662 5662 5673 5677 5665 5674 5666 5652 5611 5611 5601 5603 5656 5639 5618 5634 5638 5633 5625 5621 5618 5613 5608 5602 5598 5593 5593 5590 5586 5582 5577 5571 5563 5556 5546 5535 5525 5517 5508 5499 5491 5483 5473 5459
5639 5627 5655 5665 5659 5653 5653 5649 5596 5606 5585 5599 5643 5612 5608 5631 5629 5624 5620 5615 5614 5612 5605 5596 5590 5584 5579 5581 5574 5568 5565 5560 5553 5541 5533 5524 5515 5507 5496 5491 5476 5463 5447 5434
5639 5634 5658 5661 5665 5661 5650 5626 5650 5611 5607 5583 5610 5614 5622 5627 5623 5621 5615 5610 5600 5600 5600 5594 5589 5581 5571 5563 5558 5554 5549 5541 5535 5526 5517 5508 5498 5489 5475 5463 5449 5437 5425 5413
5651 5629 5652 5658 5664 5663 5650 5654 5612 5599 5586 5593 5601 5602 5595 5607 5608 5610 5602 5597 5596 5591 5583 5577 5570 5561 5555 5551 5546 5540 5534 5527 5517 5509 5500 5491 5481 5469 5456 5440 5428 5417 5403 5392
5645 5640 5638 5654 5638 5633 5634 5629 5628 5619 5587 5567 5559 5579 5610 5597 5598 5591 5592 5584 5579 5574 5567 5560 5555 5551 5546 5542 5535 5527 5519 5513 5505 5496 5486 5475 5463 5451 5436 5425 5413 5401 5387 5373
5645 5631 5605 5631 5647 5652 5647 5632 5622 5572 5583 5562 5554 5566 5599 5594 5590 5586 5579 5577 5576 5569 5560 5553 5548 5542 5536 5529 5526 5515 5509 5501 5494 5486 5473 5462 5450 5437 5424 5410 5395 5385 5367 5354
5637 5626 5592 5612 5627 5639 5635 5632 5619 5600 5574 5571 5529 5557 5600 5596 5591 5586 5575 5571 5566 5558 5551 5544 5536 5533 5529 5523 5516 5506 5497 5489 5480 5468 5455 5440 5423 5414 5401 5388 5371 5359 5343 5330
5635 5632 5611 5589 5616 5623 5618 5619 5618 5596 5557 5569 5562 5578 5588 5576 5572 5565 5561 5557 5551 5545 5538 5531 5524 5518 5514 5508 5499 5489 5480 5470 5459 5447 5435 5424 5411 5396 5381 5365 5346 5332 5323 5314
5629 5609 5615 5617 5620 5622 5618 5613 5610 5604 5593 5566 5575 5578 5573 5566 5563 5555 5552 5546 5540 5532 5525 5519 5511 5507 5501 5493 5482 5472 5463 5452 5441 5426 5414 5407 5397 5377 5356 5340 5330 5319 5313 5306
5623 5592 5605 5603 5608 5604 5598 5599 5599 5599 5598 5594 5590 5578 5572 5566 5561 5552 5545 5537 5528 5521 5515 5510 5504 5497 5489 5479 5470 5460 5445 5431 5419 5406 5395 5386 5371 5355 5341 5326 5317 5313 5304 5297
5606 5584 5570 5577 5585 5577 5567 5592 5601 5600 5597 5591 5568 5573 5563 5554 5547 5535 5527 5524 5518 5511 5506 5498 5492 5485 5475 5465 5453 5437 5424 5414 5405 5393 5378 5360 5349 5337 5323 5313 5302 5297 5293 5287
5591 5581 5553 5546 5549 5554 5594 5607 5604 5592 5585 5582 5571 5558 5552 5545 5533 5525 5520 5513 5508 5503 5495 5487 5478 5467 5457 5446 5433 5423 5413 5402 5389 5372 5357 5342 5330 5319 5308 5297 5288 5286 5283 5279
5598 5563 5531 5538 5541 5569 5589 5597 5586 5575 5566 5568 5556 5548 5543 5538 5528 5515 5511 5508 5501 5492 5482 5473 5464 5455 5444 5433 5422 5409 5396 5384 5369 5354 5341 5327 5312 5302 5293 5281 5280 5279 5275 5269
5579 5563 5542 5530 5512 5513 5569 5584 5584 5577 5537 5559 5551 5542 5533 5529 5494 5502 5504 5499 5494 5484 5474 5464 5453 5441 5428 5415 5404 5392 5380 5367 5352 5336 5321 5308 5298 5289 5281 5277 5276 5271 5269 5261
5529 5527 5517 5535 5499 5537 5571 5578 5576 5537 5537 5548 5541 5533 5525 5509 5496 5496 5490 5488 5481 5471 5461 5450 5437 5423 5411 5401 5390 5380 5368 5352 5336 5321 5309 5298 5290 5284 5280 5275 5271 5267 5260 5253
5538 5519 5528 5532 5514 5519 5575 5570 5548 5547 5547 5538 5529 5520 5512 5502 5494 5487 5482 5475 5466 5456 5445 5435 5421 5409 5398 5389 5376 5363 5349 5334 5319 5307 5299 5290 5283 5279 5277 5272 5267 5259 5252 5245
5557 5556 5540 5542 5540 5565 5570 5563 5561 5550 5539 5526 5521 5513 5503 5492 5485 5477 5468 5461 5451 5439 5428 5417 5405 5397 5387 5374 5359 5345 5332 5317 5305 5295 5287 5281 5277 5273 5270 5264 5257 5251 5245 5237
5577 5576 5548 5553 5566 5567 5559 5556 5549 5538 5527 5518 5511 5503 5492 5481 5474 5466 5455 5444 5432 5421 5409 5401 5392 5382 5370 5359 5347 5331 5317 5307 5296 5285 5277 5272 5268 5265 5262 5256 5250 5243 5235 5227
5565 5569 5564 5550 5561 5555 5545 5539 5529 5524 5517 5508 5502 5493 5482 5472 5460 5450 5436 5426 5415 5403 5395 5385 5374 5364 5355 5344 5331 5318 5307 5298 5287 5277 5269 5263 5259 5258 5254 5249 5241 5236 5231 5225
5567 5556 5535 5532 5551 5544 5531 5523 5521 5513 5505 5497 5488 5475 5468 5456 5443 5432 5419 5408 5398 5389 5380 5371 5360 5349 5339 5329 5315 5304 5295 5287 5277 5268 5261 5255 5252 5249 5246 5240 5234 5230 5226 5221